This is the latest recevied weather packets stored in our database for station/object KE5OYL. If no packets are shown the sender has not sent any weather packets the latest 10 day(s).
| Time | Temp. | Humidity | Pressure | Rain* | Wind** | Luminosity | Snow |
|---|---|---|---|---|---|---|---|
| 1788570704 | 34.44° C | 46% | 1012.2 hPa | 0 mm | - | 0 W/m² | - |
| 1788570398 | 34.44° C | 46% | 1012.2 hPa | 0 mm | - | 0 W/m² | - |
| 1788570094 | 34.44° C | 46% | 1012.2 hPa | 0 mm | - | 0 W/m² | - |
| 1788569790 | 34.44° C | 45% | 1012.2 hPa | 0 mm | - | 1 W/m² | - |
| 1788569486 | 34.44° C | 45% | 1012.2 hPa | 0 mm | - | 2 W/m² | - |
| 1788569186 | 34.44° C | 45% | 1011.9 hPa | 0 mm | - | 4 W/m² | - |
| 1788568881 | 34.44° C | 45% | 1012.1 hPa | 0 mm | - | 6 W/m² | - |
| 1788568576 | 35° C | 45% | 1012.2 hPa | 0 mm | - | 10 W/m² | - |
| 1788568272 | 35° C | 44% | 1011.9 hPa | 0 mm | - | 15 W/m² | - |
| 1788567967 | 35° C | 45% | 1011.8 hPa | 0 mm | - | 19 W/m² | - |
| 1788567662 | 35° C | 44% | 1011.9 hPa | 0 mm | - | 23 W/m² | - |
| 1788567357 | 35° C | 45% | 1011.9 hPa | 0 mm | - | 28 W/m² | - |
| 1788567051 | 35° C | 45% | 1011.9 hPa | 0 mm | - | 33 W/m² | - |
| 1788566746 | 35.56° C | 45% | 1012 hPa | 0 mm | - | 37 W/m² | - |
| 1788566443 | 35.56° C | 44% | 1012 hPa | 0 mm | - | 51 W/m² | - |
| 1788566137 | 35.56° C | 44% | 1011.8 hPa | 0 mm | - | 57 W/m² | - |
| 1788565837 | 35.56° C | 45% | 1011.8 hPa | 0 mm | - | 67 W/m² | - |
| 1788565537 | 35.56° C | 45% | 1011.6 hPa | 0 mm | - | 72 W/m² | - |
| 1788565233 | 35.56° C | 45% | 1011.5 hPa | 0 mm | - | 84 W/m² | - |
| 1788564927 | 36.11° C | 45% | 1011.5 hPa | 0 mm | - | 91 W/m² | - |
| 1788564624 | 36.11° C | 45% | 1011.8 hPa | 0 mm | - | 100 W/m² | - |
| 1788564320 | 35.56° C | 45% | 1011.6 hPa | 0 mm | - | 117 W/m² | - |
| 1788564017 | 36.11° C | 45% | 1011.6 hPa | 0 mm | - | 131 W/m² | - |
| 1788563712 | 36.11° C | 44% | 1011.4 hPa | 0 mm | - | 140 W/m² | - |
| 1788563407 | 36.11° C | 45% | 1011.8 hPa | 0 mm | - | 161 W/m² | - |
* Rain latest hour (hover to see other rain measurements)
** Current wind speed in m/s (hover to see current wind gust speed)